Regional Weather Roundup
Issued by NWS Jackson, KY

Home | Current Version | Previous Version | Text Only | Print | Product List | Glossary Off
Versions: 1 2 3 4 5 6 7 8 9 10 11 12 13 14 15 16 17 18 19 20 21 22 23 24 25 26 27 28 29 30 31 32 33 34 35 36 37 38 39 40 41 42 43 44 45 46 47 48 49 50

000
ASUS43 KJKL 152110
RWRJKL

EAST KENTUCKY HOURLY WEATHER ROUNDUP
NATIONAL WEATHER SERVICE JACKSON KY
400 PM EST MON JAN 15 2018

NOTE: "FAIR" INDICATES FEW OR NO CLOUDS BELOW 12,000 FEET WITH
NO SIGNIFICANT WEATHER AND/OR OBSTRUCTIONS TO VISIBILITY.

* THESE REPORTS ARE NOT UNDER NWS QUALITY CONTROL AND MAY NOT
  REPORT WEATHER SUCH AS PRECIPITATION AND FOG.

KYZ079-080-083-085-087-088-110-112-115-119-120-152200
...EASTERN KENTUCKY...

CITY           SKY/WX    TMP DP  RH WIND       PRES   REMARKS
JACKSON        CLOUDY    38  22  52 VRB5      30.26R WCI  34
LONDON         PTSUNNY   41  20  43 S12       30.27S
SOMERSET*      CLOUDY    41  21  45 SW10      30.30R
MONTICELLO*    CLOUDY    42  24  49 SW18      30.30R
WILLIAMSBURG*    N/A     43  19  39 S10       30.29R
MIDDLESBORO*     N/A     40  22  47 S6        30.32S
HARLAN APT*      N/A     37  21  52 SE3       30.30R
PIKE CO APT*   PTSUNNY   39  23  53 S6        30.26S WCI  34
BIG SANDY APT* CLOUDY    39  22  50 SW7       30.27R WCI  34
MOREHEAD APT*  CLOUDY    37  21  52 SW20      30.26R WCI  27
ASHLAND*       PTSUNNY   40  21  46 SW7       30.27R
$$

KYZ035-036-041-042-044-050-067-078-099-152200
...CENTRAL KENTUCKY...

CITY           SKY/WX    TMP DP  RH WIND       PRES   REMARKS
MT STERLING*   CLOUDY    37  23  56 SW10      30.26R WCI  30
FLEMING/MASON* CLOUDY    35  22  59 SW13G22   30.27R WCI  26
DANVILLE*      CLOUDY    37  21  52 W8        30.28R WCI  31
LEXINGTON      CLOUDY    36  20  52 SW18G31   30.26R WCI  26
FRANKFORT      CLOUDY    33  21  61 W12       30.27R WCI  24
LOUISVILLE     LGT SNOW  31  27  85 SW8       30.31R FOG     WCI  23
LEBANON*       CLOUDY    36  19  51 SW12      30.29R WCI  27
GLASGOW*       PTSUNNY   37  25  62 W10       30.31R WCI  30
BOWLING GREEN  CLOUDY    36  25  64 W9        30.33R WCI  29
$$

KYZ091>093-OHZ055-061-077-WVZ005-015-034-035-042-152200
...SOUTHERN OHIO/WEST VIRGINIA...

CITY           SKY/WX    TMP DP  RH WIND       PRES   REMARKS
COVINGTON      LGT SNOW  28  26  92 SW12      30.24R FOG     WCI  18
COLUMBUS       LGT SNOW  27  24  89 S9        30.23R VSB 3/4 WCI  18
DAYTON         CLOUDY    26  23  88 SW16G22   30.21R WCI  14
WILMINGTON     SNOW      27  25  92 SW9       30.22R VSB 1/2 WCI  18
HUNTINGTON     PTSUNNY   38  21  50 S8        30.26S WCI  32
CHARLESTON     PTSUNNY   38  22  52 S9        30.27F WCI  31
BECKLEY          N/A     34  18  52 SE7       30.23F WCI  28
BLUEFIELD        N/A     33  20  58 SW13      30.25F WCI  24
LOGAN CO APT*    N/A     39  21  48 SW8       30.26R WCI  34
$$

VAZ002-007-008-TNZ017-027-036-066-071-152200
...SOUTHWEST VIRGINIA/EAST TENNESSEE...

CITY           SKY/WX    TMP DP  RH WIND       PRES   REMARKS
WISE*            N/A     32  23  69 SW12      30.27R WCI  23
JONESVILLE*      N/A     39  21  48 SW8       30.34S WCI  34
ABINGDON*        N/A     38  25  60 W6        30.30S WCI  33
BRISTOL        PTSUNNY   40  25  55 W5        30.32S
MORRISTOWN*    CLEAR     41  23  48 W13       30.31F
SEVIERVILLE*   CLEAR     45  25  45 VRB3      30.32F
KNOXVILLE        N/A     44  24  45 SW17      30.32F
LAFOLLETTE*    CLEAR     43  21  42 SW10      30.34R
OAK RIDGE        N/A     44  21  40 VRB7      30.34R
CROSSVILLE       N/A     43  19  38 VRB5      30.28S
NASHVILLE      CLOUDY    46  22  38 W9G18     30.32R
$$

...KEY TO REMARKS...
VSB - VISIBILITY IN MILES
WCI - WIND CHILL INDEX
HX  - HEAT INDEX

$$



USA.gov is the U.S. government's official web portal to all federal, state and local government web resources and services.